Date String (YYYY-MM-DD hh:mm:ss) UTC,Instrument flags,absolute air pressure of the measurement (hPa),sample flow rate (lpm),inlet stack bypass flow (lpm),air temperature of the measurement (°C),ambient temperature measured by the external sensor (°C),aerosol sample conditioner tube jacket temperature (°C),OPC LED temperature (°C),internal box temperature (°C),relative humidity of the measurement (%),span deviation,mass concentration of particles derived from Lorenz-Mie calculation of OPC scattering (μg/m³),mass concentration of particles derived from Lorenz-Mie calculation of OPC scattering (μg/m³),mass concentration of particles derived from Lorenz-Mie calculation of OPC scattering (μg/m³)
DateTimeUTC,F1_M11,P_M11,Q1_M11,Q2_M11,T1_M11,T2_M11,T3_M11,T4_M11,T5_M11,U1_M11,ZSPAN_M11,X2_M11,X0_M11,X1_M11
2024-05-02 00:00:00,SystemResetWarning,0821.7,5.00,000.00,025.4,024.9,000.0,033.4,027.2,022.7,0000.0,0001.05,0006.02,0000.56
2024-05-02 00:01:00,SystemResetWarning,0821.8,4.99,000.00,025.4,024.9,000.0,033.4,027.2,022.9,0000.0,0001.12,0006.33,0000.60
2024-05-02 00:02:00,SystemResetWarning,0821.8,5.00,000.00,025.5,024.9,000.0,033.5,027.2,022.9,0000.0,0001.21,0007.20,0000.65
2024-05-02 00:03:00,SystemResetWarning,0821.7,5.01,000.00,025.5,024.9,000.0,033.5,027.2,022.8,0000.0,0001.27,0007.47,0000.69
2024-05-02 00:04:00,SystemResetWarning,0821.6,5.01,000.00,025.5,024.9,000.0,033.5,027.3,022.6,0000.0,0001.40,0008.19,0000.74
2024-05-02 00:05:00,SystemResetWarning,0822.1,4.98,000.00,025.5,024.9,000.0,033.6,027.2,022.6,0000.0,0001.55,0008.46,0000.80
2024-05-02 00:06:00,SystemResetWarning,0822.0,5.00,000.00,025.5,024.8,000.0,033.6,027.2,022.1,0000.0,0001.64,0008.59,0000.84
2024-05-02 00:07:00,SystemResetWarning,0821.6,5.00,000.00,025.5,024.8,000.0,033.6,027.2,022.0,0000.0,0001.64,0008.54,0000.85
2024-05-02 00:08:00,SystemResetWarning,0821.9,5.01,000.00,025.5,024.8,000.0,033.6,027.2,022.3,0000.0,0001.62,0008.20,0000.85
2024-05-02 00:09:00,SystemResetWarning,0821.6,5.01,000.00,025.5,024.8,000.0,033.7,027.2,022.4,0000.0,0001.65,0008.87,0000.86
2024-05-02 00:10:00,SystemResetWarning,0821.6,4.99,000.00,025.4,024.7,000.0,033.7,027.2,022.5,0000.0,0001.67,0009.11,0000.85
2024-05-02 00:11:00,SystemResetWarning,0821.6,4.99,000.00,025.4,024.7,000.0,033.7,027.2,022.4,0000.0,0001.67,0008.04,0000.84
2024-05-02 00:12:00,SystemResetWarning,0821.7,5.00,000.00,025.4,024.7,000.0,033.7,027.1,022.3,0000.0,0001.69,0007.87,0000.83
2024-05-02 00:13:00,SystemResetWarning,0821.9,5.00,000.00,025.4,024.7,000.0,033.7,027.1,021.5,0000.0,0001.68,0007.49,0000.81
2024-05-02 00:14:00,SystemResetWarning,0821.8,5.01,000.00,025.4,024.7,000.0,033.7,027.0,021.2,0000.0,0001.69,0007.33,0000.78
2024-05-02 00:15:00,SystemResetWarning,0821.6,5.01,000.00,025.3,024.6,000.0,033.7,027.0,019.7,0000.0,0001.67,0007.20,0000.78
2024-05-02 00:16:00,SystemResetWarning,0821.7,4.98,000.00,025.3,024.6,000.0,033.7,027.0,019.8,0000.0,0001.67,0007.43,0000.78
2024-05-02 00:17:00,SystemResetWarning,0821.7,5.00,000.00,025.3,024.6,000.0,033.7,026.9,020.4,0000.0,0001.63,0007.71,0000.79
2024-05-02 00:18:00,SystemResetWarning,0821.7,5.00,000.00,025.3,024.6,000.0,033.7,026.9,021.1,0000.0,0001.67,0007.78,0000.80
2024-05-02 00:19:00,SystemResetWarning,0821.7,5.00,000.00,025.3,024.5,000.0,033.7,026.9,020.5,0000.0,0001.66,0007.93,0000.80
2024-05-02 00:20:00,SystemResetWarning,0821.7,5.00,000.00,025.2,024.5,000.0,033.7,026.8,020.5,0000.0,0001.63,0007.24,0000.80
2024-05-02 00:21:00,SystemResetWarning,0821.6,5.00,000.00,025.2,024.5,000.0,033.7,026.8,020.6,0000.0,0001.58,0006.74,0000.80
2024-05-02 00:22:00,SystemResetWarning,0821.6,5.00,000.00,025.2,024.5,000.0,033.7,026.8,020.5,0000.0,0001.59,0006.83,0000.80
2024-05-02 00:23:00,SystemResetWarning,0821.6,5.00,000.00,025.2,024.5,000.0,033.7,026.8,020.7,0000.0,0001.60,0007.36,0000.80
2024-05-02 00:24:00,SystemResetWarning,0821.6,4.99,000.00,025.2,024.5,000.0,033.7,026.8,020.9,0000.0,0001.60,0007.61,0000.81
2024-05-02 00:25:00,SystemResetWarning,0821.7,4.99,000.00,025.1,024.5,000.0,033.7,026.8,021.3,0000.0,0001.64,0007.63,0000.82
2024-05-02 00:26:00,SystemResetWarning,0821.9,5.01,000.00,025.1,024.5,000.0,033.7,026.8,021.6,0000.0,0001.63,0007.76,0000.82
2024-05-02 00:27:00,SystemResetWarning,0822.0,5.01,000.00,025.1,024.4,000.0,033.6,026.8,021.4,0000.0,0001.58,0008.17,0000.80
2024-05-02 00:28:00,SystemResetWarning,0821.8,5.00,000.00,025.1,024.5,000.0,033.6,026.8,021.0,0000.0,0001.60,0007.60,0000.79
2024-05-02 00:29:00,SystemResetWarning,0821.8,5.00,000.00,025.1,024.4,000.0,033.6,026.8,021.0,0000.0,0001.67,0007.74,0000.79
2024-05-02 00:30:00,SystemResetWarning,0821.8,5.01,000.00,025.1,024.4,000.0,033.6,026.8,020.7,0000.0,0001.71,0007.50,0000.80
2024-05-02 00:31:00,SystemResetWarning,0822.0,5.00,000.00,025.1,024.4,000.0,033.6,026.8,020.8,0000.0,0001.76,0007.34,0000.82
2024-05-02 00:32:00,SystemResetWarning,0821.8,5.00,000.00,025.1,024.4,000.0,033.6,026.9,021.1,0000.0,0001.78,0007.36,0000.83
2024-05-02 00:33:00,SystemResetWarning,0821.9,4.99,000.00,025.1,024.5,000.0,033.6,026.9,020.8,0000.0,0001.88,0007.46,0000.86
2024-05-02 00:34:00,SystemResetWarning,0821.9,4.99,000.00,025.1,024.5,000.0,033.6,026.9,019.8,0000.0,0001.95,0007.14,0000.90
2024-05-02 00:35:00,SystemResetWarning,0821.9,5.00,000.00,025.1,024.5,000.0,033.6,026.9,018.6,0000.0,0002.07,0007.19,0000.96
2024-05-02 00:36:00,SystemResetWarning,0822.0,5.00,000.00,025.1,024.5,000.0,033.6,026.9,018.1,0000.0,0002.11,0007.33,0001.03
2024-05-02 00:37:00,SystemResetWarning,0821.9,5.01,000.00,025.1,024.5,000.0,033.6,026.9,018.3,0000.0,0002.28,0007.29,0001.10
2024-05-02 00:38:00,SystemResetWarning,0821.6,5.00,000.00,025.1,024.5,000.0,033.6,026.9,018.4,0000.0,0002.38,0006.72,0001.18
2024-05-02 00:39:00,SystemResetWarning,0822.0,5.00,000.00,025.2,024.5,000.0,033.6,026.9,017.8,0000.0,0002.47,0007.57,0001.25
2024-05-02 00:40:00,SystemResetWarning,0822.0,5.00,000.00,025.2,024.5,000.0,033.6,027.0,017.2,0000.0,0002.56,0007.87,0001.32
2024-05-02 00:41:00,SystemResetWarning,0822.0,5.00,000.00,025.2,024.5,000.0,033.6,027.0,016.8,0000.0,0002.61,0007.87,0001.38
2024-05-02 00:42:00,SystemResetWarning,0822.0,5.00,000.00,025.2,024.5,000.0,033.6,026.9,016.9,0000.0,0002.69,0008.14,0001.43
2024-05-02 00:43:00,SystemResetWarning,0822.1,5.00,000.00,025.2,024.5,000.0,033.6,026.9,017.3,0000.0,0002.75,0008.70,0001.48
2024-05-02 00:44:00,SystemResetWarning,0822.1,5.00,000.00,025.2,024.5,000.0,033.6,026.9,017.2,0000.0,0002.73,0008.51,0001.51
2024-05-02 00:45:00,SystemResetWarning,0821.9,5.00,000.00,025.2,024.5,000.0,033.6,026.9,017.1,0000.0,0002.71,0008.48,0001.53
2024-05-02 00:46:00,SystemResetWarning,0821.9,5.00,000.00,025.2,024.5,000.0,033.6,026.9,016.5,0000.0,0002.69,0008.19,0001.52
2024-05-02 00:47:00,SystemResetWarning,0822.0,5.00,000.00,025.2,024.5,000.0,033.6,026.9,016.9,0000.0,0002.74,0008.18,0001.52
2024-05-02 00:48:00,SystemResetWarning,0821.8,5.00,000.00,025.2,024.5,000.0,033.6,027.0,017.1,0000.0,0002.72,0008.06,0001.50
2024-05-02 00:49:00,SystemResetWarning,0821.6,5.00,000.00,025.2,024.5,000.0,033.6,027.0,017.1,0000.0,0002.69,0007.90,0001.48
2024-05-02 00:50:00,SystemResetWarning,0821.6,5.01,000.00,025.2,024.5,000.0,033.6,027.0,017.2,0000.0,0002.69,0007.14,0001.47
2024-05-02 00:51:00,SystemResetWarning,0821.6,5.00,000.00,025.2,024.5,000.0,033.6,027.0,017.1,0000.0,0002.60,0006.64,0001.43
2024-05-02 00:52:00,SystemResetWarning,0821.6,4.99,000.00,025.2,024.5,000.0,033.7,027.0,017.0,0000.0,0002.56,0006.57,0001.41
2024-05-02 00:53:00,SystemResetWarning,0821.5,4.99,000.00,025.2,024.5,000.0,033.7,027.0,017.0,0000.0,0002.45,0006.28,0001.37
2024-05-02 00:54:00,SystemResetWarning,0821.6,5.01,000.00,025.2,024.5,000.0,033.6,026.9,017.1,0000.0,0002.46,0005.05,0001.33
2024-05-02 00:55:00,SystemResetWarning,0821.5,5.01,000.00,025.2,024.6,000.0,033.7,027.0,017.4,0000.0,0002.51,0005.16,0001.31
2024-05-02 00:56:00,SystemResetWarning,0821.6,5.01,000.00,025.2,024.5,000.0,033.7,027.0,017.5,0000.0,0002.48,0005.07,0001.28
2024-05-02 00:57:00,SystemResetWarning,0821.6,5.00,000.00,025.2,024.5,000.0,033.7,027.0,017.7,0000.0,0002.43,0004.94,0001.28
2024-05-02 00:58:00,SystemResetWarning,0821.7,4.98,000.00,025.2,024.5,000.0,033.7,027.1,017.9,0000.0,0002.38,0004.85,0001.25
2024-05-02 00:59:00,SystemResetWarning,0822.1,5.00,000.00,025.2,024.6,000.0,033.7,027.1,017.5,0000.0,0002.37,0004.87,0001.23
